Hourly Data Report for September 30, 2017

All times are specified in Local Standard Time (LST). Add 1 hour to adjust for Daylight Saving Time where and when it is observed.

PETAWAWA AWOS 2
ONTARIO

45°57'00.000" N
77°19'00.000" W
130.10 m
6106396
71625
YWA

Download Data

Hourly Data (September 2017)
Hourly Data Report for September 30, 2017
Temp Definition
°C
Dew Point Temp Definition
°C
Rel Hum Definition
%
Wind Dir Definition
10's deg

Wind Spd Definition
km/h
Visibility Definition
km
Stn Press Definition
kPa
Hmdx Definition


Wind Chill Definition


Weather Definition


TIME
00:00 7.2 4.7 84 33 11 14.5 100.73     LegendNANA
01:00 6.4 4.2 86 33 11 14.5 100.79     LegendNANA
02:00 6.2 3.9 85 33 11 14.5 100.83     LegendNANA
03:00 5.1 3.4 89 27 4 14.5 100.86     LegendNANA
04:00 4.7 3.2 90 32 13 14.5 100.93     Drizzle
05:00 4.9 3.1 88 29 6 14.5 101.03     Drizzle
06:00 3.0 2.2 94 27 7 14.5 101.12     LegendNANA
07:00 3.5 2.5 93 27 7 14.5 101.21     LegendNANA
08:00 6.6 4.2 85 32 15 14.5 101.26     LegendNANA
09:00 9.1 4.9 75 35 15 14.5 101.31     LegendNANA
10:00 10.9 3.0 58 2 15 14.5 101.35     LegendNANA
11:00 11.5 1.3 50 35 15 14.5 101.37     LegendNANA
12:00 12.4 2.7 52 33 11 14.5 101.35     LegendNANA
13:00 13.0 2.1 48 30 9 14.5 101.31     LegendNANA
14:00 13.2 2.3 48 32 7 14.5 101.27     LegendNANA
15:00 13.2 1.6 45 32 11 14.5 101.22     LegendNANA
16:00 13.8 2.1 45 34 9 14.5 101.18     LegendNANA
17:00 13.3 2.6 48 29 9 14.5 101.20     LegendNANA
18:00 10.4 3.4 62 28 6 14.5 101.21     LegendNANA
19:00 6.1 4.3 88 25 6 14.5 101.22     LegendNANA
20:00 5.0 3.3 89 25 7 14.5 101.26     LegendNANA
21:00 4.9 3.3 89 27 6 14.5 101.27     LegendNANA
22:00 3.9 2.9 93 28 4 14.5 101.28     LegendNANA
23:00 2.3 1.6 95 27 6 14.5 101.28     LegendNANA

Notes on Data Quality.

Legend

  • E = Estimated
  • M = Missing
  • NA = Not Available
  • ‡ = Partner data that is not subject to review by the National Climate Archives
Date modified: